This is the latest recevied weather packets stored in our database for station/object WC4PEM-11. If no packets are shown the sender has not sent any weather packets the latest 10 day(s).
| Time | Temp. | Humidity | Pressure | Rain* | Wind** | Luminosity | Snow |
|---|---|---|---|---|---|---|---|
| 1788009791 | 27.78° C | 89% | 1018.3 hPa | 0 mm | - | - | - |
| 1788009491 | 27.22° C | 89% | 1018.3 hPa | 0 mm | - | - | - |
| 1788009303 | 27.22° C | 90% | 1018.3 hPa | 0 mm | - | - | - |
| 1788009260 | 27.22° C | 90% | 1018.3 hPa | 0 mm | - | - | - |
| 1788009192 | 27.22° C | 90% | 1018.3 hPa | 0 mm | - | - | - |
| 1788008891 | 27.22° C | 90% | 1018.3 hPa | 0 mm | - | - | - |
| 1788008591 | 26.67° C | 92% | 1018.3 hPa | 0 mm | - | - | - |
| 1788008292 | 26.67° C | 93% | 1018.3 hPa | 0 mm | - | - | - |
| 1788007991 | 26.11° C | 94% | 1018.3 hPa | 0 mm | - | - | - |
| 1788007791 | 26.11° C | 94% | 1018.3 hPa | 0 mm | - | - | - |
| 1788007692 | 26.11° C | 94% | 1018.3 hPa | 0 mm | - | - | - |
| 1788007392 | 25.56° C | 96% | 1018.3 hPa | 0 mm | - | - | - |
| 1788007097 | 25° C | 97% | 1018 hPa | 0 mm | - | - | - |
| 1788007092 | 25.56° C | 96% | 1018.2 hPa | 0 mm | - | - | - |
| 1788006792 | 25° C | 97% | 1018.2 hPa | 0 mm | - | - | - |
| 1788006626 | 25° C | 97% | 1018 hPa | 0 mm | - | - | - |
| 1788006492 | 25° C | 97% | 1018 hPa | 0 mm | - | - | - |
| 1788006192 | 25° C | 97% | 1018 hPa | 0 mm | - | - | - |
| 1788005892 | 24.44° C | 97% | 1018 hPa | 0 mm | - | - | - |
| 1788005592 | 24.44° C | 97% | 1018 hPa | 0 mm | - | - | - |
| 1788005292 | 24.44° C | 98% | 1018.2 hPa | 0 mm | - | - | - |
| 1788004992 | 23.89° C | 98% | 1018.3 hPa | 0 mm | - | - | - |
| 1788004692 | 23.89° C | 97% | 1018.2 hPa | 0 mm | - | - | - |
| 1788004392 | 23.89° C | 97% | 1018 hPa | 0 mm | - | - | - |
| 1788004092 | 23.89° C | 97% | 1017.9 hPa | 0 mm | - | - | - |
* Rain latest hour (hover to see other rain measurements)
** Current wind speed in m/s (hover to see current wind gust speed)